Wind_Speed
6 7 7 7 7 8 8 8 8 7 7 8 8 8 7 7 8 8 8 8 9 9 10 10 10 10 10 10 10 11 11 11 12 12 13 13 13 14 14 15 15 15 15 16
6 7 7 7 7 7 8 8 8 7 7 8 8 8 8 8 8 8 8 8 9 10 10 10 10 10 10 10 11 11 11 12 13 13 14 15 15 15 15 15 15 16 16 16
6 7 7 7 7 8 8 7 8 8 8 8 8 8 8 9 9 9 9 10 9 10 10 11 10 10 11 11 12 12 12 13 14 14 15 15 16 15 16 16 16 16 16 16
6 7 7 7 7 7 7 7 8 8 9 9 9 8 8 9 9 10 10 10 10 11 11 11 11 11 12 13 13 13 14 14 15 16 16 16 17 16 16 17 17 17 17 17
6 7 7 8 8 8 8 8 8 8 9 10 10 10 9 9 10 10 11 10 11 11 12 12 13 12 13 13 14 14 15 15 16 17 17 17 18 18 18 18 18 17 17 18
7 7 8 8 8 8 8 8 8 8 9 10 9 10 9 9 10 11 12 12 12 12 13 13 14 14 15 15 15 16 16 16 17 17 18 18 18 19 19 19 19 19 19 19
7 8 7 7 8 8 8 8 8 8 9 9 9 10 9 9 10 12 13 13 13 14 14 15 15 16 16 16 17 17 17 17 18 18 19 19 19 19 19 20 20 20 20 20
8 8 8 8 8 8 9 9 9 9 9 9 10 10 10 10 11 12 13 14 14 14 15 16 17 17 17 17 17 18 18 18 19 19 19 19 19 19 19 19 19 19 19 20
8 7 8 8 9 9 9 9 10 10 10 10 10 11 11 11 12 13 13 14 14 15 16 17 17 18 18 18 18 18 19 19 19 19 19 19 19 19 19 19 20 19 20 20
10 9 8 9 10 10 10 10 11 11 11 12 11 11 12 13 13 13 14 15 16 16 17 17 18 19 20 20 19 19 19 20 19 19 20 20 20 20 20 20 20 20 20 21
11 10 10 10 10 11 11 11 12 13 13 13 13 12 13 14 15 16 16 17 17 18 18 18 19 20 21 21 21 21 21 21 20 20 20 21 21 21 21 21 21 21 22 22
11 11 11 12 12 12 12 12 12 14 14 15 15 14 14 15 16 18 18 19 19 18 19 19 20 20 21 21 22 22 23 22 22 22 22 22 22 22 22 22 22 23 23 23
12 13 13 13 14 14 14 14 14 14 15 16 16 16 16 17 18 19 20 20 20 20 21 21 22 22 22 22 22 23 24 24 24 24 24 24 23 23 23 24 24 24 24 24
14 14 14 14 14 15 15 15 15 16 16 17 17 17 18 19 19 20 20 21 21 22 22 23 23 24 23 23 24 24 25 25 26 26 26 25 25 25 24 24 24 25 25 26
15 16 16 16 15 16 17 17 17 17 18 18 18 19 19 20 20 20 21 22 22 23 23 24 24 25 25 25 26 26 27 27 27 27 28 27 27 26 26 25 25 25 26 26
17 18 17 17 18 18 18 18 19 19 19 20 20 20 21 22 22 23 23 24 24 24 24 24 25 26 26 27 28 28 28 29 29 29 29 29 27 27 27 27 27 27 27 27
18 19 19 19 19 20 20 19 19 20 21 21 22 22 22 23 24 24 25 25 25 26 25 26 26 27 28 28 29 29 29 29 30 30 30 29 28 28 28 27 28 28 28 28
20 20 20 20 20 21 20 20 20 20 22 22 23 23 24 25 25 26 26 27 27 27 27 27 28 28 29 29 29 30 30 30 30 30 30 29 28 28 28 28 28 29 29 29
20 21 21 22 22 22 21 21 21 22 22 23 23 24 25 26 27 27 28 28 28 28 29 29 29 29 29 29 29 29 29 29 29 28 28 28 28 28 28 28 28 28 29 29
21 22 22 23 23 23 22 22 23 24 24 24 24 25 26 27 27 27 28 29 30 30 30 30 30 30 29 29 29 29 29 29 28 28 28 28 28 28 28 28 28 28 29 28
22 22 23 23 24 24 23 23 24 25 25 25 26 26 27 27 28 27 28 29 31 31 31 31 30 30 30 29 29 29 29 29 29 29 29 28 28 28 28 28 27 28 28 29
22 23 23 24 24 24 24 25 26 26 26 26 26 27 28 28 28 28 29 30 31 31 31 31 31 30 30 30 30 29 29 30 30 29 29 29 29 29 29 29 28 29 29 29
23 24 24 25 25 26 26 27 27 28 28 28 28 28 28 28 28 28 29 29 30 30 30 30 30 30 30 30 30 29 29 29 29 30 30 29 30 30 30 30 29 29 30 29
24 24 25 26 26 27 27 28 29 29 29 29 29 29 29 29 29 28 29 29 30 30 30 30 30 29 30 30 30 30 29 29 30 30 30 30 30 30 30 30 30 30 30 30
25 25 26 27 28 29 28 28 29 29 29 29 29 30 30 30 30 30 30 30 31 30 30 30 30 30 30 30 29 29 30 30 30 31 31 31 31 30 30 30 30 30 30 30
25 26 27 28 29 30 29 28 28 28 29 29 30 30 31 31 32 31 31 31 31 30 30 30 30 30 29 29 29 30 30 31 31 31 31 31 31 31 31 31 30 31 30 30
Wind_Direction
280 277 276 276 276 275 277 277 275 277 279 276 276 279 274 271 271 264 255 248 250 255 255 254 256 262 265 270 273 276 276 277 279 279 279 279 280 280 280 280 280 280 282 284
282 278 279 279 276 277 278 278 278 276 275 274 275 277 275 271 272 268 263 253 253 257 260 260 262 265 267 269 271 273 276 278 279 279 280 281 281 280 281 281 278 277 279 282
281 281 281 281 280 279 277 279 282 281 277 272 271 273 275 273 272 270 270 263 257 259 265 266 264 267 270 272 274 275 278 280 279 280 282 282 283 282 281 279 279 277 278 280
280 282 280 280 280 278 275 277 282 286 283 276 272 267 269 270 269 270 273 269 261 263 265 267 267 269 273 275 277 279 281 282 281 282 283 284 283 283 282 279 279 279 277 280
280 278 278 279 278 278 279 280 284 287 285 281 276 268 263 266 267 271 274 271 264 264 263 263 264 267 274 277 279 281 283 284 284 285 285 285 283 282 282 282 280 280 278 279
276 274 273 273 274 277 280 277 283 288 287 282 280 273 269 267 271 274 275 274 270 266 263 262 263 268 275 278 283 284 286 286 287 287 286 285 284 283 282 280 278 278 277 278
277 273 274 270 271 274 277 280 284 290 289 284 283 281 282 279 279 279 275 277 273 271 270 268 269 271 276 279 282 288 285 285 285 285 285 285 283 283 282 279 277 279 278 278
282 275 274 275 275 276 275 280 289 291 287 283 283 285 288 287 286 284 280 279 275 274 274 274 274 274 275 278 281 284 285 284 283 284 284 284 284 283 283 281 279 279 278 279
281 275 276 274 273 275 278 281 287 290 288 286 283 285 285 285 286 288 285 279 276 276 278 277 276 276 277 278 280 283 285 286 286 285 285 285 283 283 283 282 282 281 280 279
282 276 275 276 274 273 277 283 285 286 287 287 286 287 283 281 284 287 287 286 284 280 281 279 278 279 280 281 282 284 285 287 287 287 286 285 284 283 282 281 281 282 281 280
281 279 277 277 278 277 275 278 283 283 282 284 286 288 290 287 286 286 286 287 287 283 281 281 281 283 283 283 283 284 285 285 286 287 286 285 284 282 280 279 280 280 280 279
281 281 279 280 281 280 277 278 284 283 285 285 287 288 289 290 290 290 288 289 288 284 283 282 284 285 286 286 285 284 284 284 284 285 286 284 284 282 280 279 279 280 280 279
280 280 280 278 278 279 280 283 286 285 284 285 286 289 290 290 291 292 292 292 290 287 284 284 285 285 285 286 284 283 284 283 283 283 285 285 284 282 280 278 278 278 279 279
277 279 281 282 283 282 281 284 286 285 284 287 287 289 290 291 292 293 293 293 292 291 288 286 285 285 285 285 284 283 283 283 283 283 283 284 284 282 278 275 276 276 277 279
278 280 281 283 282 279 280 280 282 284 285 288 290 289 291 291 292 293 293 293 294 293 292 289 287 286 285 284 285 283 284 283 284 284 284 283 282 281 278 276 275 275 277 278
278 280 283 283 283 280 279 279 281 283 286 287 288 289 292 292 291 292 292 293 293 294 292 290 289 287 286 285 284 283 283 285 285 284 284 282 281 280 278 276 276 275 276 277
278 280 281 282 285 284 284 286 286 286 287 289 288 288 288 289 290 291 292 292 293 293 291 290 289 289 287 287 285 284 284 284 284 284 282 282 280 279 278 277 276 276 276 276
279 279 280 282 282 282 289 290 289 288 288 288 288 288 287 287 289 290 291 291 293 293 292 291 290 289 288 286 285 284 284 284 283 283 282 280 278 278 277 276 277 276 276 277
280 281 280 281 282 283 287 287 289 290 290 290 288 289 289 289 288 289 290 291 291 292 293 293 292 291 289 287 286 286 284 284 284 283 282 280 278 278 278 278 277 276 276 278
278 279 281 283 283 283 287 288 289 290 291 292 291 291 292 292 290 290 290 289 290 292 293 294 293 291 290 288 287 287 285 284 283 282 282 281 280 279 279 280 278 277 277 278
278 280 282 284 285 285 287 289 290 291 295 296 294 293 293 293 291 291 290 289 290 291 292 293 292 291 290 289 288 287 285 283 281 281 282 281 281 280 280 280 279 278 279 279
280 281 283 284 286 287 288 289 290 292 293 295 295 294 294 293 291 291 292 292 292 292 292 292 292 291 290 289 288 287 285 283 281 281 281 280 280 281 281 281 280 280 279 280
280 281 282 284 287 289 288 288 290 291 292 292 293 294 295 294 292 292 293 294 294 294 294 294 292 291 290 290 289 287 285 283 281 281 281 280 278 279 279 279 279 280 280 281
279 281 282 283 285 286 287 288 289 291 292 292 292 294 296 296 295 294 294 294 296 296 296 295 293 292 291 290 289 287 285 284 283 283 281 281 279 278 278 278 279 279 280 280
280 281 283 283 283 284 285 287 289 291 292 292 292 294 295 295 296 295 296 296 297 297 297 295 294 293 292 291 289 288 287 287 286 284 282 281 280 279 278 277 277 278 279 279
280 282 284 285 285 284 286 288 290 291 292 293 293 293 294 295 295 295 296 296 296 296 296 295 294 293 292 292 291 290 290 289 288 286 283 282 280 279 277 276 276 277 278 279
Height
5824 5825 5825 5826 5826 5826 5826 5827 5827 5826 5826 5826 5825 5825 5826 5825 5825 5825 5825 5826 5826 5826 5826 5827 5827 5827 5828 5827 5827 5827 5826 5826 5825 5825 5824 5824 5823 5823 5823 5822 5822 5821 5821 5820
5823 5823 5823 5823 5823 5824 5824 5824 5825 5825 5824 5824 5823 5823 5823 5823 5823 5824 5824 5824 5824 5824 5824 5824 5824 5825 5825 5825 5824 5824 5823 5823 5822 5821 5821 5820 5820 5819 5819 5818 5818 5817 5817 5816
5821 5822 5821 5821 5821 5822 5822 5822 5822 5822 5822 5822 5822 5822 5821 5821 5821 5821 5821 5822 5822 5822 5822 5822 5822 5822 5822 5822 5821 5821 5820 5819 5819 5818 5817 5816 5816 5815 5815 5814 5814 5813 5812 5812
5819 5819 5819 5819 5819 5819 5820 5820 5820 5820 5820 5820 5820 5820 5820 5819 5819 5819 5819 5819 5819 5819 5819 5819 5819 5819 5819 5818 5818 5817 5817 5816 5815 5814 5813 5812 5812 5811 5810 5809 5809 5808 5807 5807
5817 5817 5817 5817 5817 5817 5818 5818 5818 5818 5817 5817 5817 5817 5819 5817 5817 5817 5817 5816 5816 5816 5816 5816 5816 5816 5815 5815 5814 5813 5812 5811 5810 5809 5808 5808 5807 5806 5806 5805 5804 5803 5803 5802
5815 5815 5815 5815 5815 5815 5816 5816 5816 5815 5815 5815 5815 5815 5816 5815 5815 5814 5814 5814 5814 5813 5813 5813 5812 5812 5811 5811 5810 5809 5808 5807 5806 5805 5804 5803 5802 5801 5801 5800 5800 5799 5798 5798
5814 5814 5813 5813 5813 5813 5814 5814 5814 5813 5812 5813 5813 5812 5813 5812 5812 5812 5811 5811 5810 5810 5810 5809 5809 5808 5808 5807 5806 5805 5804 5803 5801 5800 5799 5798 5797 5796 5795 5795 5794 5794 5793 5793
5812 5812 5812 5811 5811 5811 5811 5812 5813 5812 5811 5811 5810 5809 5810 5810 5809 5809 5808 5808 5807 5807 5807 5806 5805 5804 5803 5802 5801 5800 5799 5798 5797 5795 5794 5793 5792 5791 5790 5789 5789 5788 5788 5788
5810 5810 5809 5809 5809 5809 5809 5809 5810 5810 5808 5808 5808 5808 5807 5806 5806 5805 5805 5804 5803 5803 5803 5802 5801 5800 5799 5798 5796 5795 5794 5793 5791 5790 5789 5788 5786 5786 5785 5784 5783 5783 5783 5782
5808 5808 5807 5807 5807 5807 5807 5807 5807 5807 5806 5805 5805 5805 5805 5803 5803 5803 5802 5801 5800 5799 5798 5797 5796 5795 5794 5792 5791 5790 5789 5787 5786 5784 5783 5782 5781 5780 5780 5779 5778 5778 5777 5776
5805 5806 5806 5805 5804 5804 5805 5805 5804 5803 5803 5802 5802 5804 5801 5800 5800 5799 5798 5797 5796 5794 5793 5792 5791 5790 5788 5787 5786 5784 5783 5782 5781 5779 5778 5777 5775 5775 5774 5773 5772 5772 5771 5771
5802 5803 5803 5803 5802 5802 5802 5801 5801 5801 5800 5799 5798 5801 5798 5797 5795 5795 5794 5793 5792 5790 5789 5787 5786 5784 5783 5781 5780 5779 5777 5776 5775 5774 5772 5771 5770 5769 5768 5767 5766 5766 5765 5765
5799 5800 5800 5800 5801 5800 5798 5798 5797 5797 5796 5795 5795 5797 5794 5792 5791 5790 5789 5788 5787 5785 5784 5782 5781 5779 5777 5776 5774 5773 5771 5770 5769 5767 5766 5765 5763 5762 5761 5760 5760 5759 5759 5758
5796 5796 5797 5797 5796 5795 5794 5794 5794 5793 5792 5792 5791 5791 5790 5788 5787 5786 5784 5783 5781 5780 5778 5776 5775 5773 5771 5770 5768 5767 5765 5763 5762 5760 5759 5758 5757 5755 5754 5754 5753 5752 5752 5751
5792 5792 5792 5792 5791 5791 5790 5790 5789 5788 5788 5787 5787 5786 5786 5784 5782 5781 5779 5777 5776 5774 5772 5770 5768 5767 5765 5764 5762 5760 5758 5757 5755 5753 5752 5751 5749 5748 5747 5746 5746 5745 5744 5744
5788 5788 5788 5788 5787 5786 5785 5785 5785 5784 5783 5782 5782 5782 5780 5778 5776 5775 5773 5772 5770 5768 5766 5764 5762 5760 5758 5756 5755 5753 5751 5749 5748 5746 5744 5743 5741 5740 5739 5738 5738 5737 5736 5736
5783 5783 5783 5783 5782 5781 5781 5781 5780 5779 5778 5777 5776 5777 5774 5772 5770 5769 5767 5765 5763 5761 5759 5757 5755 5752 5750 5749 5747 5745 5743 5741 5739 5738 5736 5735 5733 5732 5731 5730 5729 5729 5728 5727
5779 5778 5777 5777 5777 5776 5779 5776 5774 5773 5772 5771 5770 5769 5768 5766 5764 5762 5760 5758 5756 5754 5752 5749 5747 5745 5743 5740 5738 5736 5734 5732 5731 5729 5727 5726 5725 5724 5723 5722 5721 5720 5719 5719
5773 5773 5772 5771 5770 5770 5772 5770 5768 5767 5766 5765 5764 5762 5761 5759 5757 5755 5753 5751 5748 5746 5744 5741 5739 5736 5734 5731 5729 5727 5725 5724 5722 5720 5719 5717 5716 5716 5715 5714 5713 5712 5711 5710
5768 5767 5767 5766 5764 5764 5766 5764 5762 5762 5760 5759 5757 5755 5753 5751 5750 5749 5746 5743 5740 5738 5735 5733 5730 5728 5725 5723 5721 5719 5717 5715 5713 5711 5710 5709 5708 5707 5706 5705 5704 5703 5702 5701
5762 5761 5761 5759 5758 5758 5759 5758 5756 5756 5755 5752 5750 5747 5745 5744 5742 5741 5738 5735 5732 5730 5727 5724 5722 5719 5717 5714 5712 5710 5708 5706 5704 5703 5701 5700 5699 5698 5698 5697 5696 5695 5694 5693
5756 5755 5754 5753 5752 5754 5752 5750 5750 5749 5746 5744 5742 5740 5738 5736 5734 5732 5729 5727 5724 5721 5718 5716 5713 5711 5708 5706 5703 5701 5699 5697 5695 5694 5693 5692 5691 5690 5689 5688 5687 5686 5685 5684
5750 5750 5748 5748 5749 5747 5745 5743 5742 5740 5739 5737 5735 5733 5731 5728 5726 5724 5721 5719 5716 5713 5710 5708 5705 5702 5700 5697 5695 5693 5690 5688 5687 5685 5684 5683 5682 5681 5680 5679 5678 5677 5676 5675
5743 5743 5742 5741 5740 5738 5737 5735 5734 5732 5731 5729 5727 5725 5723 5721 5718 5716 5713 5711 5708 5705 5702 5699 5696 5694 5692 5689 5686 5684 5682 5680 5678 5676 5675 5673 5672 5671 5670 5669 5669 5668 5667 5666
5736 5735 5734 5733 5732 5730 5729 5728 5727 5725 5723 5721 5719 5717 5715 5712 5710 5708 5705 5702 5700 5697 5694 5691 5688 5686 5683 5680 5678 5675 5673 5671 5669 5667 5666 5664 5663 5662 5661 5660 5659 5658 5657 5656
5729 5728 5726 5725 5724 5722 5722 5720 5719 5717 5715 5713 5711 5709 5707 5704 5702 5699 5696 5694 5691 5688 5685 5682 5679 5677 5674 5672 5669 5666 5664 5662 5660 5658 5656 5655 5653 5652 5651 5650 5649 5648 5648 5647